Location: Suontausta
(61.2333°N, 22.7833°E)
Time: 20:47:47
(UTC+00:00)

Daily predictions for brighter satellites

Satellite Brightness Start Highest point End
(mag) Time Altitude Azimuth Time Altitude Azimuth Time Altitude Azimuth
CZ-4B DEB 4.2 14:02:18 10° SSE 14:07:46 79° ENE 14:13:19 10° NNW
Meteor 1-11 Rocket 4.0 14:01:57 10° NNW 14:07:52 55° ENE 14:13:43 10° SE
PSLV R/B 3.8 14:04:52 10° SSE 14:08:49 81° ENE 14:12:53 10° NNW
METEOR-M 4.1 14:03:44 10° SSE 14:09:03 70° ENE 14:14:23 10° NNW
Genesis I 3.8 14:05:13 10° WNW 14:09:07 65° SW 14:12:58 10° SE
H-2A R/B 3.8 14:10:00 10° ESE 14:12:55 22° NE 14:15:49 10° N
Lacrosse 4 Rocket 2.3 14:10:22 10° WNW 14:14:06 32° N 14:17:54 10° ENE
Cosmos 1869 Rocket 3.9 14:09:44 10° NNW 14:14:11 76° W 14:18:39 10° S
NOAA 6 4.1 14:09:09 10° SE 14:14:13 62° ENE 14:19:18 10° NNW
CZ-4B R/B 3.4 14:11:17 10° S 14:14:54 58° WSW 14:18:39 10° NNW
Cosmos 1666 3.7 14:12:08 10° N 14:15:18 25° ENE 14:18:26 10° ESE
SeaSat 1 3.6 14:11:21 10° ENE 14:15:23 26° N 14:19:24 10° NW
COSMOS 2428 3.5 14:12:34 10° S 14:17:40 35° ESE 14:22:49 10° NE
Meteor 1-5 Rocket 4.2 14:12:21 10° NNW 14:17:56 67° ENE 14:23:19 10° SSE
Cosmos 1867 3.6 14:12:51 10° WNW 14:18:23 84° NNE 14:23:52 10° ESE
Cosmos 1689 Rocket 3.9 14:19:26 10° NE 14:21:32 17° E 14:23:37 10° SE
Meteor 1-26 Rocket 4.3 14:16:31 10° S 14:22:11 69° ESE 14:27:44 10° NNE
Cosmos 2278 Rocket 2.9 14:22:23 10° NW 14:27:59 60° WSW 14:33:32 10° SSE
Cosmos 2344 4.0 14:19:55 10° W 14:28:02 80° N 14:38:48 10° E
Aureole 2 Rocket 4.4 14:26:50 10° N 14:28:21 12° NNE 14:29:45 10° NE
Cosmos 1328 Rocket 4.4 14:25:27 10° SW 14:29:38 47° WNW 14:33:50 10° N
CZ-4B R/B 3.2 14:24:16 10° SSE 14:29:40 80° ENE 14:35:14 10° NNW
Cosmos 1606 3.0 14:26:29 10° SSW 14:30:18 71° WNW 14:34:10 10° NNE
IRS-1C Rocket 4.3 14:26:58 10° SE 14:32:01 49° ENE 14:37:05 10° NNW
Cosmos 2360 Rocket 2.3 14:28:19 10° SW 14:34:00 82° SE 14:39:44 10° NE
Cosmos 2322 3.9 14:29:11 10° SSW 14:34:47 61° ESE 14:40:23 10° NE
Cosmos 1782 Rocket 4.4 14:31:32 10° N 14:35:19 28° ENE 14:39:05 10° ESE
Cosmos 1656 Rocket 4.3 14:32:08 10° NW 14:37:08 35° NNE 14:42:10 10° E
YAOGAN 6 4.1 14:35:17 10° E 14:37:41 17° NE 14:40:05 10° N
Cosmos 2369 Rocket 2.5 14:32:28 10° NW 14:37:54 47° NNE 14:43:21 10° ESE
Cosmos 1151 Rocket 4.1 14:35:15 10° SW 14:39:25 42° WNW 14:43:34 10° N
COSMOS 2455 3.0 14:34:17 10° WSW 14:40:20 79° NW 14:46:05 12° NE
Cosmos 1980 Rocket 3.0 14:35:19 10° W 14:40:42 40° NNW 14:45:53 11° NE
Cosmos 1933 4.1 14:39:20 10° SSW 14:43:15 52° WNW 14:47:13 10° N
NOSS 8 (H) 4.4 14:40:35 10° WSW 14:43:42 80° SSE 14:46:53 13° ENE
NOSS 2-2 (D) 3.6 14:41:10 10° WSW 14:45:08 83° SSE 14:49:45 12° ENE
Cosmos 1048 Rocket 4.3 14:41:26 10° SW 14:46:50 73° NW 14:52:14 10° NNE
Helios 1A Rocket 2.9 14:43:21 10° SSE 14:47:27 90° WSW 14:51:34 10° NNW
APEX 4.5 14:45:12 10° WNW 14:47:31 20° N 14:49:37 12° NE
Okean 2 Rocket 4.2 14:45:56 10° N 14:49:30 22° NE 14:53:04 10° ESE
Cosmos 1269 Rocket 4.1 14:45:54 10° SSW 14:51:13 77° ESE 14:56:23 11° NE
Cosmos 1862 Rocket 4.3 14:47:25 10° SSE 14:51:22 34° E 14:55:24 10° NNE
SAR-Lupe-1 4.3 14:48:09 10° NNE 14:51:45 70° WNW 14:55:20 10° SSW
RESURS DK-1 3.0 14:48:14 10° SSW 14:52:08 41° ESE 14:55:18 15° NE
Cosmos 1743 3.6 14:49:20 10° N 14:52:43 27° ENE 14:56:06 10° ESE
SL-16 R/B 3.8 14:50:36 10° SE 14:53:45 15° E 14:55:54 13° ENE
Cosmos 1536 2.8 14:50:25 10° N 14:54:27 65° ENE 14:58:26 10° SSE
CORIOLIS 4.3 14:49:13 10° SE 14:54:31 55° ENE 14:59:50 10° NNW
Sich 1 Rocket 4.3 14:50:55 10° N 14:54:53 31° ENE 14:58:50 10° SE
Feng Yun 1-1 Rocket 4.2 14:50:12 10° SE 14:55:32 63° ENE 15:00:58 10° NNW
SMAP 3.1 14:51:05 10° SE 14:55:38 56° ENE 15:00:14 10° NNW
Landsat 5 3.4 14:51:48 10° NNE 14:55:47 87° WNW 14:59:53 10° SSW
NOSS 3-1 (C) 3.9 14:49:21 10° WNW 14:56:04 84° NNE 15:04:03 10° ESE
Cosmos 1939 Rocket 4.4 14:55:57 15° NE 14:56:22 15° NE 14:58:37 10° NNE
NOSS 2-3 (E) 4.4 14:53:40 10° WNW 14:59:08 75° N 15:06:16 10° E
Cosmos 2237 Rocket 3.1 14:55:39 10° S 15:00:38 32° ESE 15:04:36 15° NE
Cosmos 1943 Rocket 2.2 14:55:16 10° NW 15:00:54 60° NE 15:06:29 10° ESE
SL-08 R/B 3.8 14:56:21 10° NNE 15:01:15 64° WNW 15:06:04 10° SW
CZ-4B R/B 1.5 14:58:40 10° NNE 15:02:12 66° ESE 15:05:39 10° S
NOSS 8 (F) 4.4 14:59:16 10° WSW 15:02:23 74° NNW 15:05:01 17° ENE
Cosmos 2322 Rocket 2.7 14:57:48 10° WSW 15:03:23 55° NW 15:08:20 13° NE
USA 267 4.3 14:59:43 10° SE 15:06:00 47° SSW 15:12:17 10° W
Meteor 2-6 Rocket 4.1 15:00:41 10° S 15:06:03 68° ESE 15:11:33 10° NNE
Cosmos 1707 Rocket 3.6 15:01:40 10° S 15:06:09 77° E 15:10:39 10° NNE
Lacrosse 5 rocket 2.8 15:02:44 10° SSW 15:06:20 27° SSE 15:09:17 13° E
Cosmos 2219 Rocket 2.3 15:01:21 10° SSW 15:06:54 63° ESE 15:11:38 15° NE
USA 229 DEB 3.8 15:00:00 10° WNW 15:07:02 88° NNE 15:14:27 10° ESE
USA 229 3.8 15:00:06 10° WNW 15:07:08 88° NNE 15:14:32 10° ESE
Cosmos 1500 3.5 15:03:33 10° NNW 15:07:20 70° WSW 15:11:04 10° S
Cosmos 1697 Rocket 3.7 15:02:21 10° WNW 15:07:24 32° N 15:11:22 15° NE
ALOS 3.1 15:03:22 10° S 15:07:57 54° W 15:12:34 10° NNW
Cosmos 2333 Rocket 2.3 15:02:58 10° SSW 15:08:41 65° SE 15:13:30 15° NE
Radarsat Rocket 4.3 15:03:29 10° SSE 15:09:21 69° WSW 15:15:14 10° NNW
SL-4 R/B 4.0 15:07:09 10° SW 15:09:52 19° S 15:12:45 10° SE
NOSS 2-3 (D) 4.4 15:04:44 10° WNW 15:10:12 76° N 15:17:21 10° E
GENESIS II 4.4 15:08:12 10° WNW 15:12:19 59° NNE 15:15:26 17° E
NOSS 3-1 (A) 3.8 15:05:43 10° WNW 15:12:24 82° NNE 15:20:21 10° ESE
Cosmos 1812 3.0 15:09:26 10° S 15:13:09 47° E 15:16:23 13° NNE
Cosmos 292 Rocket 4.4 15:08:50 10° NW 15:13:40 60° WSW 15:18:26 10° SSE
SL-16 R/B 2.8 15:09:07 10° WSW 15:14:38 48° NNW 15:19:13 15° NE
NOSS 3-4 (A) 3.6 15:08:37 10° SW 15:14:44 71° SE 15:19:58 17° ENE
Okean O Rocket 2.4 15:10:29 10° S 15:14:46 56° WSW 15:19:05 10° NNW
NOSS 3-4 (C) 3.6 15:08:43 10° SW 15:14:51 71° SE 15:20:03 17° ENE
Cosmos 468 Rocket 4.5 15:11:00 10° NNW 15:15:51 39° NE 15:20:44 10° ESE
Cosmos 1092 Rocket 4.4 15:11:22 10° SSE 15:17:07 40° E 15:22:51 10° NNE
Aureole 1 Rocket 4.1 15:15:42 10° SE 15:18:02 18° E 15:18:15 18° E
Cosmos 1908 Rocket 3.5 15:13:56 10° NNW 15:18:23 77° ENE 15:22:45 10° SSE
Envisat 3.1 15:14:12 10° SE 15:19:09 54° ENE 15:24:06 10° NNW
Cosmos 2251 Rocket 3.8 15:16:14 10° S 15:21:20 51° ESE 15:25:11 17° NE
Cosmos 2242 Rocket 4.0 15:18:35 10° SSE 15:22:54 42° E 15:26:39 13° NNE
NOSS 2-2 (C) 3.6 15:18:54 10° WSW 15:22:58 80° NNW 15:26:27 20° ENE
Cosmos 1782 3.6 15:19:35 10° SSW 15:23:29 51° WNW 15:27:23 10° N
Cosmos 405 Rocket 3.5 15:21:55 10° N 15:25:10 28° ENE 15:27:19 17° ESE
Okean 1-7 4.0 15:21:40 10° SE 15:25:20 27° E 15:26:57 21° NE
CSL-04 Rocket 4.0 15:21:27 10° ESE 15:26:22 40° NE 15:31:21 10° NNW
Cosmos 1300 Rocket 4.3 15:22:50 10° N 15:26:40 29° ENE 15:30:27 10° ESE
H-2A R/B 3.4 15:23:02 10° N 15:26:46 34° WNW 15:30:30 10° WSW
COSMO-SKYMED 1 4.3 15:28:07 15° ESE 15:28:07 15° ESE 15:29:47 10° SE
Cosmos 1980 4.0 15:27:03 10° S 15:32:29 49° ESE 15:36:03 21° NE
Exosat Rocket 3.8 15:29:29 10° S 15:34:19 51° ESE 15:37:43 21° NE
Cosmos 2297 4.5 15:31:01 10° NW 15:36:37 56° WSW 15:42:09 10° SSE
Cosmos 1441 Rocket 3.1 15:33:25 10° NNW 15:37:18 88° WSW 15:41:05 10° SSE
YAOGAN 3 4.5 15:33:22 10° SSE 15:37:43 71° ENE 15:42:06 10° NNW
Cosmos 1733 Rocket 4.5 15:33:50 10° NNW 15:37:57 41° W 15:42:05 10° SSW
Cosmos 1315 Rocket 3.7 15:34:04 10° SW 15:38:01 50° WNW 15:42:03 10° N
YAOGAN 1 3.0 15:35:06 10° SE 15:39:07 38° ENE 15:43:09 10° N
Okean-O 2.5 15:35:38 10° SSE 15:40:03 74° ENE 15:44:31 10° NNW
Meteor 1-28 Rocket 4.0 15:36:33 10° N 15:40:13 50° WNW 15:43:53 10° SW
SL-16 R/B 3.9 15:35:15 10° NNE 15:40:40 33° NW 15:46:05 10° WSW
CZ-4 R/B 1.6 15:37:38 10° SE 15:41:16 42° ENE 15:44:56 10° N
S3M 4.1 15:36:23 10° N 15:42:26 48° ENE 15:48:23 10° SE
Cosmos 921 Rocket 3.6 15:38:42 10° NW 15:42:55 60° WSW 15:47:11 10° SSE
NOSS 2-2 (E) 3.8 15:39:22 10° W 15:43:36 72° N 15:46:37 26° ENE
NOAA 12 4.0 15:38:26 10° SSE 15:43:45 84° ENE 15:49:03 10° NNW
Cosmos 2263 4.2 15:38:12 10° NW 15:44:00 70° NE 15:49:49 10° SE
Meteor 1-10 Rocket 4.3 15:38:33 10° SSW 15:44:10 82° WNW 15:49:56 10° NNE
ARGOS 4.3 15:44:59 21° NE 15:45:13 21° NE 15:49:11 10° N
H-2A R/B 2.9 15:43:07 10° S 15:46:48 70° WSW 15:50:31 10° NNW
NOSS 2-3 (C) 4.5 15:41:39 10° WNW 15:47:21 86° NNE 15:53:34 15° ESE
Okean 1 Rocket 4.4 15:44:26 10° N 15:46:44 21° NNE 15:46:44 21° NNE
CSL-04 Debris 4.3 15:42:44 10° SE 15:48:00 52° ENE 15:53:16 10° NNW
H-2A R/B 3.3 15:48:47 20° NE 15:48:47 20° NE 15:51:55 10° N
Cosmos 1975 2.9 15:44:24 10° N 15:48:20 53° ENE 15:52:16 10° SSE
Meteor 1-12 Rocket 4.5 15:43:08 10° NNW 15:48:53 48° ENE 15:54:28 10° SE
Nadezhda 4 Rocket 3.9 15:43:52 10° S 15:50:11 79° E 15:56:30 10° NNE
Cosmos 1570 Rocket 4.3 15:45:43 10° NNW 15:50:47 44° NE 15:53:33 24° E
Cosmos 1666 3.3 15:47:29 10° NNW 15:51:12 56° W 15:54:52 10° S
SeaSat 1 3.0 15:50:09 27° ENE 15:52:05 39° NNE 15:56:40 10° NW
OPS 8737 4.2 15:49:15 10° WNW 15:52:11 60° N 15:52:41 50° NE
ATLAS 2AS CENTAUR R/B 3.1 15:44:30 10° WSW 15:52:37 86° NNW 15:57:45 25° ENE
Cosmos 1689 Rocket 2.6 15:51:24 21° N 15:53:14 59° WNW 15:56:13 10° SSW
Cosmos 1553 Rocket 4.0 15:46:54 10° NNW 15:53:15 65° ENE 15:59:39 10° SSE
Lacrosse 4 Rocket 1.6 15:49:29 10° NW 15:53:31 49° NNE 15:54:52 35° ENE
Meteor 1-27 Rocket 3.8 15:52:48 10° SSW 15:58:40 87° ESE 16:04:39 10° NNE
NOSS 0 Rocket 3.9 15:52:43 10° SSW 15:58:56 71° SE 16:02:42 25° NE
Cosmos 2151 Rocket 3.8 15:57:08 10° N 16:01:26 46° ENE 16:05:41 10° SE
COSMOS 2428 2.8 15:55:53 10° SW 16:01:36 77° NW 16:05:12 24° NE
Ariane Rocket 3.4 16:00:38 29° E 16:02:24 38° NE 16:07:03 10° NNW
Meteor 2-9 Rocket 4.2 15:56:53 10° NNW 16:02:47 70° ENE 16:08:35 10° SSE
Aureole 2 Rocket 3.8 16:00:25 10° NNW 16:02:10 23° N 16:02:10 23° N
Cosmos 1763 Rocket 3.5 15:58:40 10° NNW 16:03:40 54° NE 16:06:26 25° ESE
PSLV R/B 3.8 16:05:27 23° NNE 16:07:58 83° ESE 16:12:07 10° SSW
USA 215 4.0 16:07:16 25° E 16:10:17 36° SE 16:16:15 10° SSW
YAOGAN 6 2.4 16:07:05 10° SSE 16:10:40 83° ENE 16:14:21 10° NNW
Cosmos 2026 Rocket 3.9 16:05:24 10° S 16:11:20 60° E 16:17:21 10° NNE
Cosmos 1782 Rocket 4.0 16:09:16 10° NNW 16:13:35 63° W 16:17:53 10° S
COBE Rocket 3.6 16:10:44 20° NNE 16:14:01 75° ESE 16:18:43 10° S
Aureole 3 Rocket 4.1 16:10:57 10° N 16:12:13 21° N 16:12:13 21° N
NOAA 11 4.2 16:09:29 10° SE 16:14:53 61° ENE 16:20:19 10° NNW
Cosmos 192 4.3 16:12:58 10° NNW 16:17:56 61° NE 16:19:55 34° ESE
Cosmos 2360 Rocket 3.0 16:13:07 10° W 16:18:32 43° NNW 16:21:31 24° NNE
Cosmos 2322 4.3 16:13:37 10° WSW 16:19:12 52° NNW 16:22:18 25° NNE
Cosmos 1263 4.3 16:17:24 10° SSW 16:20:27 82° WNW 16:21:00 59° N
Cosmos 1656 Rocket 3.5 16:16:01 10° NW 16:21:29 75° NE 16:24:35 27° SE
Cosmos 2369 Rocket 2.4 16:16:40 10° NW 16:22:17 70° SW 16:27:54 10° SSE
Cosmos 1190 Rocket 4.3 16:19:17 10° S 16:24:10 43° ESE 16:24:38 42° E
Cosmos 1417 Rocket 4.4 16:19:05 10° NNW 16:25:16 89° ENE 16:31:26 10° SSE
Cosmos 1980 Rocket 3.3 16:20:59 10° WNW 16:26:04 31° N 16:27:39 27° NNE
COSMOS 2455 3.3 16:21:02 10° W 16:26:56 50° N 16:29:13 34° NE
Cosmos 614 Rocket 4.1 16:22:55 10° S 16:27:49 50° ESE 16:28:31 47° E
Okean 2 Rocket 3.0 16:23:41 10° NNW 16:28:12 88° WSW 16:32:43 10° SSE
Cosmos 1743 3.5 16:24:58 10° NNW 16:28:46 52° W 16:32:33 10° S
Meteor 1-18 Rocket 4.2 16:23:22 10° S 16:28:52 56° E 16:31:17 32° NE
Cosmos 1862 Rocket 4.4 16:24:53 10° SW 16:29:09 49° WNW 16:32:47 14° N
Cosmos 2315 Rocket 4.1 16:22:58 10° N 16:29:11 52° ENE 16:33:40 19° SE
RESURS DK-1 2.9 16:26:05 10° WSW 16:30:09 53° NW 16:31:12 41° NNE
Cosmos 883 Rocket 4.5 16:24:11 10° NNW 16:30:29 60° ENE 16:36:43 10° SSE
Cosmos 1939 Rocket 3.5 16:31:50 39° N 16:31:50 39° N 16:34:30 10° NNW
Cosmos 1703 Rocket 3.5 16:28:20 10° SSW 16:32:50 89° WNW 16:34:56 32° NNE
Sich 1 Rocket 4.2 16:29:02 10° NNW 16:33:22 55° W 16:37:40 10° S
CZ-2D R/B 4.2 16:35:38 35° N 16:35:38 35° N 16:37:57 10° NNW
CZ-4B R/B 3.8 16:31:52 12° N 16:34:16 22° NW 16:37:00 10° WSW
Cosmos 841 Rocket 3.5 16:29:11 10° NNW 16:34:20 57° NE 16:35:08 51° E
NOSS 2-2 (D) 3.9 16:31:38 10° W 16:35:58 69° N 16:37:07 51° ENE
SL-16 R/B 2.3 16:31:12 10° SSW 16:36:43 54° ESE 16:37:48 47° E
Cosmos 2221 Rocket 4.5 16:36:41 10° S 16:39:26 34° SSE 16:39:26 34° SSE
Cosmos 2344 4.3 16:34:13 10° WNW 16:42:53 74° SW 16:54:47 10° SE
Cosmos 2237 Rocket 2.2 16:38:34 10° SW 16:44:17 82° NW 16:46:26 40° NE
Cosmos 1943 Rocket 3.1 16:39:14 10° NW 16:44:39 49° WSW 16:50:02 10° S
Lacrosse 5 rocket 1.9 16:40:59 10° WSW 16:44:56 45° S 16:44:56 45° S
Meteor 2-8 Rocket 4.3 16:39:08 10° NNW 16:45:12 65° ENE 16:49:59 17° SSE
NOSS 3-1 (C) 4.5 16:40:06 10° WNW 16:46:58 57° SW 16:54:57 10° SSE
Cosmos 540 Rocket 3.4 16:42:59 10° NNW 16:48:05 59° NE 16:48:12 59° NE
Cosmos 2322 Rocket 3.3 16:43:25 10° WNW 16:48:31 33° N 16:50:08 28° NNE
SL-4 R/B 4.1 16:45:57 10° WSW 16:48:36 18° SSW 16:49:31 16° S
Cosmos 1627 Rocket 4.4 16:42:35 10° SSW 16:48:44 85° WNW 16:54:59 10° NNE
GENESIS II 4.5 16:46:01 10° WNW 16:50:08 67° SW 16:50:23 65° S
Cosmos 2219 Rocket 2.8 16:45:37 10° WSW 16:51:07 50° NNW 16:53:21 33° NNE
Cosmos 1697 Rocket 3.5 16:47:38 10° NW 16:52:47 35° NNE 16:53:05 34° NNE
Cosmos 2333 Rocket 2.9 16:47:36 10° WSW 16:53:15 51° NNW 16:55:30 33° NNE
Cosmos 1140 Rocket 3.6 16:49:09 10° S 16:53:37 52° SE 16:53:37 52° SE
Okean 1 3.7 16:53:32 10° SSW 16:56:45 57° SSW 16:56:45 57° SSW
Cosmos 468 Rocket 4.2 16:53:01 10° NW 16:58:11 70° WSW 17:01:10 26° SSE
Envisat 4.4 16:53:38 10° SSW 16:58:24 39° W 17:03:12 10° NNW
SL-16 R/B 3.3 16:54:52 10° WNW 16:59:56 32° N 17:01:04 29° NNE
Cosmos 405 Rocket 3.5 16:57:47 10° NNW 17:01:23 48° W 17:02:41 32° SSW
Cosmos 1656 4.2 16:56:36 10° NW 17:01:27 40° NNE 17:01:27 40° NNE
Aureole 1 Rocket 3.5 16:58:35 10° SW 17:00:55 44° WSW 17:00:55 44° WSW
Cosmos 1092 Rocket 4.4 16:56:07 10° SSW 17:02:20 62° WNW 17:08:31 10° NNE
Okean 1-7 3.5 16:58:17 10° SSW 17:02:38 62° WNW 17:03:50 43° NNW
NOSS 3-1 (A) 4.3 16:56:31 10° WNW 17:03:25 61° SW 17:08:59 21° SSE
Cosmos 2251 Rocket 4.2 16:58:36 10° WSW 17:03:44 50° NW 17:05:40 34° N
COSMO-SKYMED 1 3.4 17:05:20 41° S 17:05:20 41° S 17:08:13 10° SSW
Meteor 2-13 Rocket 4.3 16:58:06 10° S 17:04:06 67° E 17:05:55 46° NE
Cosmos 1300 Rocket 4.0 17:00:29 10° NNW 17:04:46 59° W 17:09:00 10° S
Cosmos 1655 Rocket 3.8 16:59:22 10° S 17:05:37 71° E 17:08:53 30° NNE
NOSS 3-4 (A) 3.6 16:59:26 10° W 17:05:47 76° N 17:07:24 54° ENE
NOSS 3-4 (C) 3.6 16:59:32 10° W 17:05:52 76° N 17:07:30 54° ENE
Meteor 2-4 Rocket 4.2 17:00:54 10° S 17:05:02 43° SSE 17:05:02 43° SSE
CSL-04 Rocket 4.1 17:01:22 10° S 17:06:35 59° WSW 17:11:55 10° NNW
Meteor 1-15 Rocket 4.1 17:01:02 10° NNW 17:06:42 71° ENE 17:07:04 68° E
Cosmos 407 Rocket 3.3 17:03:13 10° SSW 17:08:28 83° ESE 17:08:45 79° ENE
NOSS 2-2 (C) 3.9 17:09:26 10° WNW 17:13:51 73° N 17:13:51 73° N
YAOGAN 1 3.6 17:11:02 10° S 17:15:13 46° W 17:19:25 10° NNW
CZ-4 R/B 2.9 17:12:53 10° SSW 17:16:25 34° W 17:19:59 10° NNW
Cosmos 1980 4.1 17:10:57 10° WSW 17:16:34 60° NW 17:17:54 47° NNE
Meteor 1-19 Rocket 4.0 17:13:14 10° SSW 17:18:42 86° ESE 17:18:57 82° NE
Cosmos 2208 Rocket 4.1 17:13:25 10° NW 17:18:53 79° WSW 17:19:43 64° S
Cosmos 1814 Rocket 3.9 17:16:57 10° NW 17:22:03 83° NW 17:22:03 83° NW
ARGOS 3.9 17:26:30 40° N 17:26:30 40° N 17:29:59 10° NNW
H-2A R/B 3.2 17:29:24 31° N 17:29:24 31° N 17:31:58 10° NNW
SeaSat 1 2.6 17:29:56 71° NW 17:29:56 71° NW 17:34:22 10° NW
Resurs 01 Rocket 4.3 17:34:09 11° N 17:34:09 11° N 17:34:16 10° N
Lacrosse 4 Rocket 2.6 17:28:14 10° NW 17:31:11 41° WNW 17:31:11 41° WNW
Cosmos 1570 Rocket 4.4 17:28:04 10° NW 17:33:15 59° WSW 17:34:01 53° SSW
NOSS 2-2 (E) 4.2 17:29:51 10° WNW 17:34:00 70° NW 17:34:00 70° NW
Exosat Rocket 4.4 17:31:05 10° WSW 17:35:55 46° NW 17:36:49 42° N
Meteor 2-15 4.4 17:32:29 10° NNW 17:38:03 73° NNE 17:38:03 73° NNE
Cosmos 2266 Rocket 4.0 17:34:47 10° S 17:40:17 67° S 17:40:17 67° S
Ariane Rocket 3.4 17:40:50 58° SW 17:41:15 60° WSW 17:46:17 10° NNW
ATLAS 2AS CENTAUR R/B 2.9 17:36:06 10° W 17:44:10 75° N 17:45:11 67° ENE
Cosmos 1763 Rocket 4.4 17:40:40 10° NW 17:45:28 43° WSW 17:46:31 38° SW
NOSS 0 Rocket 4.4 17:39:38 10° WSW 17:45:45 53° NNW 17:46:42 48° N
COSMOS 2428 3.7 17:41:21 10° W 17:46:40 38° NNW 17:47:12 37° N
MOS 1 4.4 17:48:53 71° WSW 17:49:03 72° WSW 17:54:48 10° NNW
USA 215 3.4 17:54:37 57° S 17:54:37 57° S 18:00:37 10° WSW
Cosmos 2360 Rocket 3.5 17:58:47 10° WNW 18:03:16 31° NNW 18:03:16 31° NNW
Cosmos 2369 Rocket 4.5 18:01:25 10° WNW 18:05:29 21° WSW 18:09:33 10° SSW
Cosmos 1980 Rocket 3.5 18:05:53 10° NW 18:09:25 33° NNW 18:09:25 33° NNW
COSMOS 2455 3.6 18:07:48 10° WNW 18:12:21 46° NNW 18:12:21 46° NNW
SL-16 R/B 3.1 18:15:19 10° WSW 18:19:41 46° W 18:19:41 46° W
Lacrosse 5 rocket 4.2 18:19:55 10° W 18:20:34 14° W 18:20:34 14° W
Cosmos 2237 Rocket 3.4 18:23:45 10° W 18:28:16 37° NW 18:28:16 37° NW
Cosmos 2322 Rocket 3.9 18:28:48 10° NW 18:31:57 27° NNW 18:31:57 27° NNW
Cosmos 2219 Rocket 3.8 18:31:11 10° WNW 18:35:04 29° NNW 18:35:04 29° NNW
Cosmos 1697 Rocket 4.2 18:32:01 10° NW 18:34:49 30° NNW 18:34:49 30° NNW
Cosmos 2333 Rocket 3.8 18:33:30 10° WNW 18:37:30 30° NNW 18:37:30 30° NNW
SL-16 R/B 4.0 18:40:08 10° NW 18:42:56 26° NNW 18:42:56 26° NNW
NOSS 3-4 (A) 4.5 18:50:33 10° WNW 18:54:49 45° WNW 18:54:49 45° WNW
NOSS 3-4 (C) 4.5 18:50:40 10° WNW 18:54:56 45° WNW 18:54:56 45° WNW
H-2A R/B 4.5 19:10:01 17° NW 19:10:01 17° NW 19:11:18 10° NNW
ATLAS 2AS CENTAUR R/B 3.9 19:27:33 10° WNW 19:32:37 43° WNW 19:32:37 43° WNW
